Torna al catalogo

STARLINK-35822

AttivoComunicazioniVLEO
NORAD 66362·PAYLOAD·🇺🇸 United States

Lanciato Nov 6, 2025 da Vandenberg Space Force Base

Loading…

Prossimi Passaggi (prossime 24 ore)

TLE

AggiornatoSource: CelesTrak SupGP

Epoca: Sep 14, 2026, 22:47 UTC

1 66362C 25254Q   26257.94979167  .00055704  00000+0  16458-2 0  2578
2 66362  53.1572  71.4506 0001085  65.6419 133.9118 15.34363420    14

Traccia STARLINK-35822 in tempo reale con AllMySat

Download on the App Store